STARLINK-1677, 46576

Orbit data source: Space-Track

STARLINK-1677, 46576 is a payload satellite owned by SpaceX/Seattle (US) in LEO that was launched on Tue, 06 Oct 2020 UTC via an FALCON 9 launch vehicle from the Air Force Eastern Test Range (AFETR). Payload-class satellites include a variety of spacecraft equipped with specific instruments for various scientific and technological missions. These include communications satellites like Starlink; space stations such as the ISS; scientific satellites like the Hubble; Earth observation satellites from companies like Planet Labs, Umbra, and HawkEye 360; GPS; miniature CubeSats for education and research; and military/defense satellites.

Loading next visibility...
Identifier
46576, 2020-070AW
Orbit
LEO
Country
Flag of USUS
Related business
Manufacturer
SpaceX/Seattle
Mission
Operational Commercial Communications
Bus & Motor
STARLINK, Unknown motor
Mass
260 kg wet, ~248 kg dry
Launch date (UTC)
2020-10-06 (5 years ago)
Launch vehicle
FALCON 9
Launch site
Air Force Eastern Test Range (AFETR)
Object type
Payload
Rocket body
Debris
Shape & HBR
Box + 1 Pan, 4.4 m
Radar Cross Section
13.562 m², Large (>1 m²)

Expand to show TLE details & history
Last TLE update: 16 hours ago

TLE from 16 hours ago
0 STARLINK-1677
1 46576U 20070AW  25261.02652443  .00001540  00000-0  12224-3 0  9993
2 46576  53.0534 216.7372 0001694  83.5711 276.5471 15.06399905273699
Epoch: 2025-09-18T00:38Z
TLE epoch observation values (Epoch: 2025-09-18T00:38:11.71Z)
Latitude
-0.00002°
Longitude
-150.00564°
Altitude
547.957 km
Speed
7.589 km/s
True Right ascension
14h 26m 56s
True Declination
0° 00' 00"
Sunlit
Object was in daylight at epoch
Visualization orbit readout
Latitude
Unknown
Longitude
Unknown
Altitude
Unknown
Speed
Unknown
Apparent Right ascension
Unknown
Apparent Declination
Unknown
Sunlit
N/A
Visualization observer readout
Local Sidereal Time
09:20:27
Azimuth
Unknown
Elevation
Unknown
Doppler factor
Unknown
Orbital elements
Apogee altitude
548.656 km
Perigee altitude
546.31 km
Semi-major axis
6,925.62 km
Eccentricity
0.00017
Inclination
53.0534°
RAAN
216.7372°
Arg. of periapsis
83.5711°
True anomaly
276.52781°
Mean anomaly
276.5471°
Eccentric anomaly
276.53746°
Mean motion
3.76578 °/min
Orbital period
95.6 mins
BSTAR
0.00012224
Loading maneuver chart data...
Computing Atmospheric mass density...
Loading historical data...
Loading historical data...
Loading historical data...
Loading historical data...
Loading historical data...
Loading historical data...
Loading historical data...

Documentation

Showing up to 5 results
|